Home   Weather   Rostock   Past weeks

Flag for Germany Past Weather in Rostock, Mecklenburg-Western Pomerania, Germany — Yesterday and Last 2 Weeks

Now
70 °F

Partly sunny.


Feels Like: 70 °F
Forecast: 54 / 63 °F
Wind: 20 mph from West

Location: Laage

Current Time: Sep 29, 2016 at 7:08:27 PM

Latest Report: Sep 29, 2016 at 6:20 PM


Visibility: N/A

Pressure: 29.74 "Hg

Humidity: 57%

Dew Point: 54 °F

Location of RostockLocation

Past Weather in Rostock — Graph

°F

Rostock Temperature Yesterday

Maximum temperature yesterday: 70 °F (at 2:20 PM)
Minimum temperature yesterday: 55 °F (at 2:20 AM)
Average temperature yesterday: 62 °F

High & Low Weather Summary for the Past Weeks

 TemperatureHumidityPressure
High81 °F (Sep 14, 5:20 PM)100% (Sep 24, 8:20 AM)30.27 "Hg (Sep 24, 8:20 AM)
Low46 °F (Sep 22, 4:20 AM)40% (Sep 18, 2:20 PM)29.74 "Hg (Sep 29, 4:20 PM)
Average60 °F72%30.10 "Hg
* Reported Sep 14 5:20 PM — Sep 29 5:20 PM, Rostock, Weather by CustomWeather, © 2016

Note: Actual official high and low records may vary slightly from our data, if they occured in-between our weather recording intervals... More about our weather records

Advertising

Rostock Weather History for the Previous 24 Hours

Scroll right to see more
 ConditionsComfort  
Time TempWeatherWind HumidityBarometerVisibility
5:20 PM
Thu, Sep 29
73 °FPartly sunny.21 mph47%29.74 "HgN/A
4:20 PM73 °FBroken clouds.14 mph41%29.74 "HgN/A
3:20 PM72 °FBroken clouds.15 mph47%29.77 "HgN/A
2:20 PM72 °FBroken clouds.17 mph44%29.80 "HgN/A
1:20 PM70 °FPartly sunny.18 mph50%29.80 "HgN/A
12:51 PM70 °FPartly sunny.20 mph46%29.80 "HgN/A
12:20 PM72 °FSandstorm.16 mph44%29.83 "HgN/A
11:20 AM68 °FPartly sunny.10 mph60%29.86 "HgN/A
10:20 AM66 °FPartly sunny.12 mph68%29.86 "HgN/A
9:20 AM64 °FBroken clouds.10 mph73%29.89 "HgN/A
8:20 AM63 °FPartly sunny.10 mph73%29.89 "HgN/A
7:20 AM61 °FPartly sunny.10 mph77%29.92 "HgN/A
6:20 AM61 °FPassing clouds.9 mph72%29.95 "HgN/A
5:20 AM61 °FPassing clouds.12 mph72%29.95 "HgN/A
4:20 AM61 °FPassing clouds.9 mph72%29.98 "HgN/A
3:20 AM61 °FPassing clouds.9 mph72%30.01 "HgN/A
2:20 AM63 °FPassing clouds.9 mph68%30.01 "HgN/A
1:20 AM63 °FPassing clouds.10 mph73%30.04 "HgN/A
12:20 AM63 °FPassing clouds.10 mph73%30.04 "HgN/A
11:20 PM
Wed, Sep 28
63 °FPassing clouds.9 mph73%30.04 "HgN/A
10:20 PM63 °FPassing clouds.13 mph73%30.04 "HgN/A
9:20 PM63 °FPassing clouds.16 mph68%30.04 "HgN/A
8:20 PM64 °FPassing clouds.17 mph60%30.04 "HgN/A
7:20 PM64 °FPassing clouds.18 mph60%30.04 "HgN/A
Weather by CustomWeather, © 2016

See weather overviewHow to use our weather pages